Weather History for KM40 - May, 2014

Change the Weather History Date:

Friday, May 23, 2014

  Actual Average (KCBM) Record (KCBM)
Temperature  
Mean Temperature 76 °F -  
Max Temperature 93 °F 81 °F 95 °F (2011)
Min Temperature 60 °F 61 °F 37 °F (1999)
Cooling Degree Days 12    
Growing Degree Days 26 (Base 50)    
Moisture  
Dew Point 59 °F    
Average Humidity 55    
Maximum Humidity 59    
Minimum Humidity 52    
Precipitation  
Precipitation 0.00 in - - ()
Sea Level Pressure  
Sea Level Pressure 30.10 in    
Wind  
Wind Speed 1 mph (West)    
Max Wind Speed 10 mph    
Max Gust Speed -    
Visibility 7 miles    
Events      
Averages and records for this station are not official NWS values.
T = Trace of Precipitation, MM = Missing Value Source: NWS Daily Summary

Daily Weather History Graph

Daily Weather History Graph

Search for Another Location

Airport or City:

Trip Planner

Search our weather history database for the weather conditions in past years. The results will help you decide how hot, cold, wet, or windy it might be!

Date:

Astronomy

May. 23, 2014 Rise Set
Actual Time 5:47 AM CDT 7:54 PM CDT
Civil Twilight 5:19 AM CDT 8:22 PM CDT
Nautical Twilight 4:45 AM CDT 8:56 PM CDT
Astronomical Twilight 4:08 AM CDT 9:33 PM CDT
Moon 2:26 AM CDT (5/23) 3:00 PM CDT (5/23)
Length of Visible Light 15h 02m
Length of Day
14h 06m
Waning Crescent, 27% of the Moon is Illuminated
May 23
Waning Crescent
May 28
New
Jun 5
First Quarter
Jun 12
Full
Jun 19
Last Quarter

Hourly Weather History & Observations

Time (CDT) Temp. Heat Index Dew Point Humidity Pressure Visibility Wind Dir Wind Speed Gust Speed Precip Events Conditions
12:15 AM 66.2 °F - 50.0 °F 56% 30.10 in 5.0 mi Calm Calm - N/A   Haze
12:35 AM 66.2 °F - 50.0 °F 56% 30.10 in 1.2 mi Calm Calm - N/A   Haze
12:55 AM 66.2 °F - 48.2 °F 52% 30.10 in 0.8 mi Calm Calm - N/A   Haze
1:15 AM 66.2 °F - 48.2 °F 52% 30.10 in 3.0 mi Calm Calm - N/A   Haze
1:35 AM 64.4 °F - 48.2 °F 56% 30.10 in 2.5 mi Calm Calm - N/A   Haze
1:55 AM 64.4 °F - 48.2 °F 56% 30.10 in 2.0 mi Calm Calm - N/A   Haze
2:15 AM 64.4 °F - 48.2 °F 56% 30.10 in 3.0 mi Calm Calm - N/A   Haze
2:35 AM 64.4 °F - 48.2 °F 56% 30.10 in 5.0 mi Calm Calm - N/A   Haze
2:55 AM 64.4 °F - 48.2 °F 56% 30.11 in 3.0 mi Calm Calm - N/A   Haze
3:15 AM 64.4 °F - 46.4 °F 52% 30.11 in 3.0 mi Calm Calm - N/A   Haze
3:35 AM 64.4 °F - 46.4 °F 52% 30.11 in 3.0 mi Calm Calm - N/A   Haze
3:55 AM 62.6 °F - 46.4 °F 55% 30.11 in 5.0 mi Calm Calm - N/A   Haze
4:15 AM 62.6 °F - 46.4 °F 55% 30.11 in 5.0 mi Calm Calm - N/A   Haze
4:35 AM 62.6 °F - 46.4 °F 55% 30.11 in 5.0 mi Calm Calm - N/A   Haze
4:55 AM 62.6 °F - 46.4 °F 55% 30.11 in 5.0 mi Calm Calm - N/A   Haze
5:15 AM 62.6 °F - 46.4 °F 55% 30.12 in 3.0 mi Calm Calm - N/A   Haze
5:35 AM 62.6 °F - 44.6 °F 52% 30.12 in 0.5 mi Calm Calm - N/A   Haze
5:55 AM 60.8 °F - 44.6 °F 55% 30.12 in 1.0 mi Calm Calm - N/A   Haze
6:15 AM 60.8 °F - 44.6 °F 55% 30.12 in 1.2 mi Calm Calm - N/A   Haze
6:35 AM 60.8 °F - 44.6 °F 55% 30.13 in 1.8 mi Calm Calm - N/A   Haze
6:55 AM 62.6 °F - 44.6 °F 52% 30.13 in 2.0 mi Calm Calm - N/A   Haze
7:15 AM 62.6 °F - 46.4 °F 55% 30.14 in 4.0 mi Calm Calm - N/A   Haze
7:35 AM 66.2 °F - 50.0 °F 56% 30.14 in 5.0 mi Calm Calm - N/A   Haze
7:55 AM 69.8 °F - 53.6 °F 56% 30.14 in 7.0 mi Calm Calm - N/A   Clear
8:15 AM 71.6 °F - 55.4 °F 57% 30.15 in 7.0 mi Calm Calm - N/A   Clear
8:35 AM 73.4 °F - 57.2 °F 57% 30.15 in 8.0 mi Calm Calm - N/A   Clear
8:55 AM 75.2 °F - 59.0 °F 57% 30.15 in 9.0 mi Calm Calm - N/A   Clear
9:15 AM 78.8 °F - 60.8 °F 54% 30.15 in 9.0 mi Calm Calm - N/A   Clear
9:35 AM 80.6 °F 81.8 °F 62.6 °F 54% 30.15 in 9.0 mi Calm Calm - N/A   Clear
9:55 AM 82.4 °F 83.9 °F 64.4 °F 54% 30.15 in 9.0 mi WNW 4.6 mph - N/A   Clear
10:15 AM 84.2 °F 86.6 °F 66.2 °F 55% 30.14 in 9.0 mi Calm Calm - N/A   Clear
10:35 AM 86.0 °F 89.4 °F 68.0 °F 55% 30.14 in 8.0 mi SW 3.5 mph - N/A   Clear
10:55 AM 86.0 °F 89.4 °F 68.0 °F 55% 30.13 in 9.0 mi SSW 4.6 mph - N/A   Clear
11:15 AM 87.8 °F 92.6 °F 69.8 °F 55% 30.13 in 9.0 mi West 10.4 mph - N/A   Clear
11:55 AM 89.6 °F 96.2 °F 71.6 °F 55% 30.13 in 8.0 mi WSW 8.1 mph - N/A   Clear
12:15 PM 89.6 °F 96.2 °F 71.6 °F 55% 30.13 in 9.0 mi WNW 8.1 mph - N/A   Clear
12:35 PM 89.6 °F 96.2 °F 71.6 °F 55% 30.13 in 8.0 mi WSW 6.9 mph - N/A   Clear
12:55 PM 91.4 °F 100.1 °F 73.4 °F 55% 30.12 in 9.0 mi West 6.9 mph - N/A   Partly Cloudy
1:15 PM 91.4 °F 100.1 °F 73.4 °F 55% 30.12 in 9.0 mi WNW 9.2 mph - N/A   Partly Cloudy
1:35 PM 89.6 °F 96.2 °F 71.6 °F 55% 30.11 in 9.0 mi West 10.4 mph - N/A   Partly Cloudy
2:15 PM 91.4 °F 100.1 °F 73.4 °F 55% 30.10 in 9.0 mi WNW 6.9 mph - N/A   Partly Cloudy
2:35 PM 91.4 °F 100.1 °F 73.4 °F 55% 30.10 in 9.0 mi West 4.6 mph - N/A   Clear
2:55 PM 91.4 °F 100.1 °F 73.4 °F 55% 30.10 in 8.0 mi West 4.6 mph - N/A   Clear
3:35 PM 93.2 °F 105.0 °F 75.2 °F 56% 30.09 in 10.0 mi NNW 5.8 mph - N/A   Partly Cloudy
3:55 PM 93.2 °F 105.0 °F 75.2 °F 56% 30.08 in 9.0 mi WSW 9.2 mph - N/A   Clear
4:15 PM 91.4 °F 100.1 °F 73.4 °F 55% 30.08 in 10.0 mi WSW 5.8 mph - N/A   Clear
4:35 PM 91.4 °F 100.1 °F 73.4 °F 55% 30.07 in 9.0 mi NW 6.9 mph - N/A   Clear
4:55 PM 91.4 °F 100.1 °F 73.4 °F 55% 30.07 in 9.0 mi West 8.1 mph - N/A   Clear
5:15 PM 91.4 °F 100.1 °F 73.4 °F 55% 30.06 in 9.0 mi West 5.8 mph - N/A   Clear
5:35 PM 91.4 °F 100.1 °F 73.4 °F 55% 30.06 in 9.0 mi SW 5.8 mph - N/A   Clear
5:55 PM 89.6 °F 98.2 °F 73.4 °F 59% 30.06 in 10.0 mi WNW 5.8 mph - N/A   Clear
6:15 PM 89.6 °F 96.2 °F 71.6 °F 55% 30.06 in 10.0 mi WSW 4.6 mph - N/A   Clear
6:35 PM 89.6 °F 96.2 °F 71.6 °F 55% 30.05 in 9.0 mi Calm Calm - N/A   Clear
6:55 PM 87.8 °F 92.6 °F 69.8 °F 55% 30.05 in 9.0 mi Calm Calm - N/A   Clear
7:15 PM 86.0 °F 89.4 °F 68.0 °F 55% 30.05 in 10.0 mi Calm Calm - N/A   Clear
7:35 PM 82.4 °F 83.9 °F 64.4 °F 54% 30.04 in 10.0 mi Calm Calm - N/A   Clear
7:55 PM 78.8 °F - 60.8 °F 54% 30.05 in 9.0 mi Calm Calm - N/A   Clear
8:15 PM 75.2 °F - 59.0 °F 57% 30.05 in 9.0 mi Calm Calm - N/A   Clear
8:35 PM 73.4 °F - 57.2 °F 57% 30.05 in 10.0 mi Calm Calm - N/A   Clear
8:55 PM 73.4 °F - 55.4 °F 53% 30.06 in 9.0 mi Calm Calm - N/A   Clear
9:15 PM 71.6 °F - 55.4 °F 57% 30.06 in 9.0 mi Calm Calm - N/A   Clear
9:35 PM 71.6 °F - 55.4 °F 57% 30.06 in 9.0 mi Calm Calm - N/A   Clear
9:55 PM 71.6 °F - 53.6 °F 53% 30.07 in 7.0 mi Calm Calm - N/A   Clear
10:15 PM 71.6 °F - 53.6 °F 53% 30.07 in 8.0 mi Calm Calm - N/A   Clear
10:35 PM 69.8 °F - 53.6 °F 56% 30.08 in 7.0 mi Calm Calm - N/A   Clear
10:55 PM 69.8 °F - 53.6 °F 56% 30.08 in 7.0 mi Calm Calm - N/A   Clear
11:15 PM 69.8 °F - 51.8 °F 53% 30.08 in 5.0 mi Calm Calm - N/A   Haze
11:35 PM 69.8 °F - 51.8 °F 53% 30.08 in 6.0 mi Calm Calm - N/A   Haze
11:55 PM 68.0 °F - 51.8 °F 56% 30.08 in 2.5 mi Calm Calm - N/A   Haze